Weather History for West Plains, MO

Change the Weather History Date:

Wednesday, April 4, 2012

  Actual Average Record
Temperature  
Mean Temperature 66 °F 54 °F  
Max Temperature 77 °F 67 °F 85 °F (1988)
Min Temperature 54 °F 42 °F 24 °F (1975)
Degree Days  
Heating Degree Days 0 11  
Month to date heating degree days 0 47  
Since 1 July heating degree days 3227 4057  
Cooling Degree Days 1 0  
Month to date cooling degree days 22 0  
Year to date cooling degree days 67 4  
Growing Degree Days 16 (Base 50)    
Moisture  
Dew Point 59 °F    
Average Humidity 75    
Maximum Humidity 100    
Minimum Humidity 50    
Precipitation  
Precipitation 0.00 in 0.13 in 1.94 in (1991)
Month to date precipitation 0.00 0.55  
Year to date precipitation 10.56 10.40  
Sea Level Pressure  
Sea Level Pressure 29.76 in    
Wind  
Wind Speed 5 mph (South)    
Max Wind Speed 15 mph    
Max Gust Speed 20 mph    
Visibility 5 miles    
Events Fog    
T = Trace of Precipitation, MM = Missing Value Source: NWS Daily Summary

Daily Weather History Graph

Daily Weather History Graph

Search for Another Location

Airport:

Trip Planner

Search our weather history database for the weather conditions in past years. The results will help you decide how hot, cold, wet, or windy it might be!

Date:

Astronomy

Apr. 04, 2012 Rise Set
Actual Time 6:48 AM CDT 7:33 PM CDT
Civil Twilight 6:22 AM CDT 7:59 PM CDT
Nautical Twilight 5:51 AM CDT 8:30 PM CDT
Astronomical Twilight 5:19 AM CDT 9:02 PM CDT
Moon 5:29 PM CDT (4/4) 5:07 AM CDT (4/4)
Length of Visible Light 13h 37m
Length of Day
12h 44m
Waxing Gibbous, 94% of the Moon is Illuminated
Apr 4
Waxing Gibbous
Apr 6
Full
Apr 13
Last Quarter
Apr 21
New
Apr 29
First Quarter

Hourly Weather History & Observations

Time (CDT) Temp. Dew Point Humidity Pressure Visibility Wind Dir Wind Speed Gust Speed Precip Events Conditions
12:53 AM 63.0 °F 61.0 °F 93% 29.84 in 7.0 mi Calm Calm - N/A   Clear
1:28 AM 62.6 °F 60.8 °F 94% 29.85 in 6.0 mi SE 3.5 mph - N/A   Mostly Cloudy
1:48 AM 62.6 °F 60.8 °F 94% 29.83 in 7.0 mi East 5.8 mph - N/A   Partly Cloudy
1:53 AM 63.0 °F 61.0 °F 93% 29.81 in 6.0 mi East 3.5 mph - N/A   Partly Cloudy
2:31 AM 62.6 °F 60.8 °F 94% 29.81 in 5.0 mi Calm Calm - N/A   Partly Cloudy
2:50 AM 62.6 °F 60.8 °F 94% 29.80 in 4.0 mi Calm Calm - N/A   Mostly Cloudy
2:53 AM 62.1 °F 61.0 °F 96% 29.76 in 4.0 mi ENE 4.6 mph - N/A   Mostly Cloudy
3:01 AM 62.6 °F 60.8 °F 94% 29.79 in 4.0 mi ENE 5.8 mph - N/A   Scattered Clouds
3:24 AM 62.6 °F 60.8 °F 94% 29.79 in 3.0 mi Calm Calm - N/A   Mostly Cloudy
3:35 AM 60.8 °F 60.8 °F 100% 29.79 in 1.8 mi Calm Calm - N/A   Overcast
3:40 AM 62.6 °F 60.8 °F 94% 29.79 in 1.0 mi Calm Calm - N/A   Overcast
3:53 AM 62.1 °F 61.0 °F 96% 29.76 in 0.8 mi Calm Calm - N/A   Mist
4:47 AM 62.6 °F 60.8 °F 94% 29.78 in 1.2 mi Calm Calm - N/A   Overcast
5:00 AM 60.8 °F 60.8 °F 100% 29.78 in 0.8 mi NNE 3.5 mph - N/A   Mist
5:18 AM 60.8 °F 59.0 °F 94% 29.76 in 1.2 mi ENE 5.8 mph - N/A   Scattered Clouds
5:27 AM 60.8 °F 60.8 °F 100% 29.75 in 2.5 mi ENE 3.5 mph - N/A   Scattered Clouds
5:49 AM 59.0 °F 57.2 °F 94% 29.76 in 1.2 mi SSW 3.5 mph - N/A   Scattered Clouds
5:53 AM 60.1 °F 59.0 °F 96% 29.74 in 1.5 mi SSW 3.5 mph - N/A   Scattered Clouds
5:55 AM 60.8 °F 59.0 °F 94% 29.77 in 2.0 mi Calm Calm - N/A   Mostly Cloudy
6:15 AM 60.8 °F 60.8 °F 100% 29.77 in 3.0 mi South 4.6 mph - N/A   Mostly Cloudy
6:25 AM 60.8 °F 60.8 °F 100% 29.77 in 1.8 mi SSE 3.5 mph - N/A   Mostly Cloudy
6:34 AM 60.8 °F 60.8 °F 100% 29.78 in 0.8 mi SSE 4.6 mph - N/A   Mist
6:53 AM 62.1 °F 61.0 °F 96% 29.76 in 0.2 mi SSE 3.5 mph - N/A Fog Fog
7:53 AM 61.0 °F 61.0 °F 100% 29.79 in 0.2 mi South 5.8 mph - N/A Fog Fog
8:03 AM 60.8 °F 60.8 °F 100% 29.81 in 1.2 mi SSW 4.6 mph - N/A   Overcast
8:19 AM 60.8 °F 60.8 °F 100% 29.81 in 2.0 mi SW 4.6 mph - N/A   Overcast
8:51 AM 62.6 °F 62.6 °F 100% 29.80 in 4.0 mi Calm Calm - N/A   Overcast
8:53 AM 62.1 °F 62.1 °F 100% 29.78 in 4.0 mi West 3.5 mph - N/A   Overcast
9:30 AM 64.4 °F 62.6 °F 94% 29.80 in 7.0 mi Variable 3.5 mph - N/A   Mostly Cloudy
10:53 AM 71.1 °F 60.1 °F 68% 29.78 in 10.0 mi Calm Calm - N/A   Partly Cloudy
11:53 AM 72.0 °F 57.9 °F 61% 29.76 in 10.0 mi WSW 5.8 mph - N/A   Mostly Cloudy
12:53 PM 75.9 °F 55.0 °F 48% 29.73 in 10.0 mi Variable 3.5 mph - N/A   Clear
1:53 PM 75.9 °F 55.9 °F 50% 29.72 in 10.0 mi SW 9.2 mph 18.4 mph N/A   Overcast
2:53 PM 75.9 °F 57.0 °F 52% 29.70 in 10.0 mi SSW 11.5 mph - N/A   Partly Cloudy
3:53 PM 75.0 °F 57.0 °F 53% 29.68 in 10.0 mi SW 10.4 mph - N/A   Partly Cloudy
4:53 PM 73.9 °F 57.0 °F 55% 29.68 in 10.0 mi SW 8.1 mph - N/A   Mostly Cloudy
5:53 PM 73.0 °F 57.0 °F 57% 29.68 in 10.0 mi WSW 9.2 mph - N/A   Scattered Clouds
6:53 PM 72.0 °F 54.0 °F 53% 29.68 in 10.0 mi WSW 9.2 mph - N/A   Clear
7:53 PM 66.9 °F 54.0 °F 63% 29.70 in 10.0 mi Calm Calm - N/A   Clear
8:53 PM 61.0 °F 55.9 °F 83% 29.71 in 10.0 mi NNE 4.6 mph - N/A   Clear
9:53 PM 61.0 °F 55.0 °F 81% 29.72 in 10.0 mi Calm Calm - N/A   Clear
10:53 PM 57.0 °F 54.0 °F 89% 29.72 in 10.0 mi Calm Calm - N/A   Clear
11:53 PM 55.9 °F 53.1 °F 90% 29.72 in 10.0 mi Calm Calm - N/A   Clear